Location: Gombori
(14.9797°N, 2.9419°W)
Time: 04:43:41
(UTC+00:00)

Meteor 2-13 Rocket - Pass Details

Date: 07 December 2021
Orbit: 936 x 957 km, 82.5° (Epoch: 19 January)

Event Time Altitude Azimuth Distance (km) Brightness Sun altitude
Rises 03:51:19 0° 169° (SSE) 3,619 7.8 -35.8°
Reaches altitude 10° 03:53:56 10° 162° (SSE) 2,672 7.1 -35.2°
Maximum altitude 03:59:42 44° 92° (E) 1,283 5.4 -33.8°
Drops below altitude 10° 04:05:25 10° 22° (NNE) 2,661 6.8 -32.5°
Sets 04:08:00 0° 16° (NNE) 3,603 7.5 -31.9°
